Weather History for EGNH - February, 2013

Change the Weather History Date:

Thursday, February 7, 2013

  Actual Average Record
Temperature  
Mean Temperature 38 °F -  
Max Temperature 40 °F 45 °F 53 °F (2008)
Min Temperature 37 °F 36 °F 21 °F (2007)
Degree Days  
Heating Degree Days 26    
Moisture  
Dew Point 35 °F    
Average Humidity 84    
Maximum Humidity 93    
Minimum Humidity 74    
Precipitation  
Precipitation 0.02 in - - ()
Sea Level Pressure  
Sea Level Pressure 30.05 in    
Wind  
Wind Speed 6 mph ()    
Max Wind Speed 15 mph    
Max Gust Speed -    
Visibility 6.2 miles    
Events Rain    
Averages and records for this station are not official NWS values.
T = Trace of Precipitation, MM = Missing Value Source: Averaged Metar Reports

Daily Weather History Graph

Daily Weather History Graph

Search for Another Location

Airport or City:

Trip Planner

Search our weather history database for the weather conditions in past years. The results will help you decide how hot, cold, wet, or windy it might be!

Date:

Astronomy

Feb. 07, 2013 Rise Set
Actual Time 7:47 AM GMT 5:06 PM GMT
Civil Twilight 7:09 AM GMT 5:43 PM GMT
Nautical Twilight 6:27 AM GMT 6:25 PM GMT
Astronomical Twilight 5:47 AM GMT 7:06 PM GMT
Moon 5:30 AM GMT (2/7) 1:59 PM GMT (2/7)
Length of Visible Light 10h 34m
Length of Day
9h 18m
Waning Crescent, 10% of the Moon is Illuminated
Feb 7
Waning Crescent
Feb 10
New
Feb 17
First Quarter
Feb 25
Full
Mar 4
Last Quarter

Hourly Weather History & Observations

Time (GMT) Temp. Windchill Dew Point Humidity Pressure Visibility Wind Dir Wind Speed Gust Speed Precip Events Conditions
2:50 AM 37 °F - 32 °F 77%  in - NNW 8.1 mph - -  
5:50 AM 37 °F - 32 °F 74%  in - NNW 6.9 mph - -  
6:20 AM 37.4 °F 32.8 °F 33.8 °F 87% 30.12 in - NNW 5.8 mph - N/A   Clear
6:50 AM 37.4 °F 32.8 °F 33.8 °F 87% 30.12 in - NW 5.8 mph - N/A   Clear
7:20 AM 37.4 °F 33.8 °F 33.8 °F 87% 30.12 in 6.2 mi NNW 4.6 mph - N/A   Partly Cloudy
7:50 AM 37.4 °F 34.9 °F 33.8 °F 87% 30.09 in 6.2 mi WNW 3.5 mph - N/A   Partly Cloudy
8:20 AM 37.4 °F 34.9 °F 32.0 °F 81% 30.09 in 6.2 mi WNW 3.5 mph - N/A   Partly Cloudy
8:50 AM 38 °F - 33 °F 74%  in - WNW 6.9 mph - -  
8:50 AM 37.4 °F 32.8 °F 33.8 °F 87% 30.09 in 6.2 mi NW 5.8 mph - N/A   Scattered Clouds
9:20 AM 39.2 °F 35.9 °F 35.6 °F 87% 30.09 in 6.2 mi WNW 4.6 mph - N/A   Scattered Clouds
9:50 AM 41.0 °F 38.0 °F 35.6 °F 81% 30.09 in 6.2 mi West 4.6 mph - N/A   Scattered Clouds
10:20 AM 39.2 °F 30.8 °F 35.6 °F 87% 30.09 in 6.2 mi WNW 15.0 mph - N/A Rain Light Rain Showers
10:50 AM 41.0 °F 37.1 °F 35.6 °F 81% 30.06 in 6.2 mi NW 5.8 mph - N/A   Mostly Cloudy
11:20 AM 41.0 °F 36.4 °F 35.6 °F 81% 30.06 in 6.2 mi WNW 6.9 mph - N/A   Mostly Cloudy
11:50 AM 40 °F - 35 °F 74%  in - NW 5.8 mph - -  
11:50 AM 41.0 °F 37.1 °F 35.6 °F 81% 30.06 in 6.2 mi NW 5.8 mph - N/A   Mostly Cloudy
12:20 PM 41.0 °F 35.8 °F 35.6 °F 81% 30.04 in 6.2 mi NW 8.1 mph - N/A   Scattered Clouds
12:50 PM 41.0 °F 35.2 °F 33.8 °F 76% 30.04 in 6.2 mi NW 9.2 mph - N/A Rain Light Rain Showers
1:20 PM 41.0 °F 36.4 °F 35.6 °F 81% 30.04 in 6.2 mi NNW 6.9 mph - N/A   Scattered Clouds
1:50 PM 41.0 °F 38.0 °F 35.6 °F 81% 30.01 in 6.2 mi NW 4.6 mph - N/A   Scattered Clouds
2:20 PM 41.0 °F 37.1 °F 35.6 °F 81% 30.01 in 6.2 mi NW 5.8 mph - N/A   Partly Cloudy
2:50 PM 40 °F - 36 °F 79%  in - WNW 6.9 mph - -  
2:50 PM 41.0 °F 38.0 °F 37.4 °F 87% 30.01 in 6.2 mi WNW 4.6 mph - N/A Rain Light Rain Showers
3:20 PM 41.0 °F 36.4 °F 35.6 °F 81% 30.01 in 6.2 mi NW 6.9 mph - N/A   Scattered Clouds
3:50 PM 41.0 °F 36.4 °F 35.6 °F 81% 30.01 in 6.2 mi NNW 6.9 mph - N/A Rain Light Rain Showers
4:20 PM 39.2 °F 34.2 °F 35.6 °F 87% 30.01 in 6.2 mi North 6.9 mph - N/A Rain Light Rain Showers
4:50 PM 39.2 °F 33.6 °F 35.6 °F 87% 30.01 in 6.2 mi NNW 8.1 mph - N/A Rain Light Rain Showers
5:20 PM 39.2 °F 33.0 °F 35.6 °F 87% 30.01 in 6.2 mi NNW 9.2 mph - N/A Rain Light Rain Showers
5:50 PM 38 °F - 36 °F 89%  in - North 8.1 mph - -  
5:50 PM 39.2 °F 33.6 °F 37.4 °F 93% 30.04 in 6.2 mi North 8.1 mph - N/A Rain Light Rain Showers
6:20 PM 39.2 °F 34.2 °F 35.6 °F 87% 30.04 in 6.2 mi NNW 6.9 mph - N/A Rain Light Rain Showers
6:50 PM 39.2 °F 33.6 °F 37.4 °F 93% 30.04 in 6.2 mi NNW 8.1 mph - N/A Rain Light Rain Showers
7:20 PM 39.2 °F 33.6 °F 37.4 °F 93% 30.04 in 6.2 mi NNW 8.1 mph - N/A   Partly Cloudy
7:50 PM 39.2 °F 33.6 °F 37.4 °F 93% 30.06 in 6.2 mi NNW 8.1 mph - N/A   Scattered Clouds
8:20 PM 39.2 °F 33.6 °F 37.4 °F 93% 30.06 in 6.2 mi NNW 8.1 mph - N/A   Scattered Clouds
8:50 PM 39 °F - 36 °F 87%  in - NNW 9.2 mph - -  
8:50 PM 39.2 °F 33.0 °F 37.4 °F 93% 30.06 in 6.2 mi NNW 9.2 mph - N/A   Scattered Clouds
11:50 PM 38 °F - 35 °F 82%  in - NNW 4.6 mph - -